SL-16 DEB, 22617

Orbit data source: Space-Track

SL-16 DEB, 22617 is space debris in LEO originally from a launch on Fri, 26 Mar 1993 UTC launched from the Tyuratam Missile And Space Complex (TTMTR). Debris objects in space refer to the collection of defunct objects orbiting the Earth. Examples of debris include non-operational satellites, rocket bodies, and fragments generated from explosions, collisions, or faulty payload assembly.

Loading next visibility...
Identifier
22617, 1993-016AB
Orbit
LEO
Country
Flag of CISCIS
Related business
Manufacturer
Unknown
Mission
Spacecraft
Bus & Motor
Unknown
Mass
Unknown
Launch date (UTC)
1993-03-26 (33 years ago)
Launch vehicle
Unknown
Launch site
Tyuratam Missile And Space Complex (TTMTR)
Object type
Payload
Rocket body
Debris
Shape & HBR
Unknown shape, 0.1 m
Radar Cross Section
Small (<0.1 m²)

Expand to show TLE details & history
Last TLE update: 12 hours ago

TLE from 12 hours ago
0 SL-16 DEB
1 22617U 93016AB  25295.61907119  .00001012  00000-0  76967-3 0  9996
2 22617  70.9989 223.5006 0131397 138.0693 287.7373 13.92086738647454
Epoch: 2025-10-22T14:51Z
TLE epoch observation values (Epoch: 2025-10-22T14:51:27.750Z)
Latitude
58.58821°
Longitude
3.46388°
Altitude
902.611 km
Speed
7.421 km/s
True Right ascension
17h 10m 28s
True Declination
58° 26' 17"
Sunlit
Object was in daylight at epoch
Visualization orbit readout
Latitude
Unknown
Longitude
Unknown
Altitude
Unknown
Speed
Unknown
Apparent Right ascension
Unknown
Apparent Declination
Unknown
Sunlit
N/A
Visualization observer readout
Local Sidereal Time
21:32:16
Azimuth
Unknown
Elevation
Unknown
Doppler factor
Unknown
Orbital elements
Apogee altitude
1,015.16 km
Perigee altitude
823.388 km
Semi-major axis
7,297.411 km
Eccentricity
0.01314
Inclination
70.9989°
RAAN
223.5006°
Arg. of periapsis
138.0693°
True anomaly
286.29612°
Mean anomaly
287.7373°
Eccentric anomaly
287.01741°
Mean motion
3.48169 °/min
Orbital period
103.4 mins
BSTAR
0.00076967
Loading maneuver chart data...
Computing Atmospheric mass density...
Loading historical data...
Loading historical data...
Loading historical data...
Loading historical data...
Loading historical data...
Loading historical data...
Loading historical data...

Documentation

Showing up to 5 results
|